Weather History for Smyrna, TN

Change the Weather History Date:

Saturday, March 2, 2013

  Actual Average Record
Temperature  
Mean Temperature 32 °F -  
Max Temperature 35 °F 52 °F 82 °F (2012)
Min Temperature 30 °F 37 °F 21 °F (2005)
Degree Days  
Heating Degree Days 32    
Moisture  
Dew Point 30 °F    
Average Humidity 90    
Maximum Humidity 100    
Minimum Humidity 79    
Precipitation  
Precipitation 0.01 in - - ()
Sea Level Pressure  
Sea Level Pressure 30.12 in    
Wind  
Wind Speed 9 mph (NNW)    
Max Wind Speed 15 mph    
Max Gust Speed -    
Visibility 8 miles    
Events Rain , Snow    
Averages and records for this station are not official NWS values.
T = Trace of Precipitation, MM = Missing Value Source: NWS Daily Summary

Daily Weather History Graph

Daily Weather History Graph

Search for Another Location

Airport:

Trip Planner

Search our weather history database for the weather conditions in past years. The results will help you decide how hot, cold, wet, or windy it might be!

Date:

Astronomy

Mar. 02, 2013 Rise Set
Actual Time 6:14 AM CST 5:42 PM CST
Civil Twilight 5:48 AM CST 6:07 PM CST
Nautical Twilight 5:19 AM CST 6:37 PM CST
Astronomical Twilight 4:49 AM CST 7:07 PM CST
Moon 11:09 PM CST (3/2) 8:53 AM CST (3/2)
Length of Visible Light 12h 19m
Length of Day
11h 27m
Waning Gibbous, 74% of the Moon is Illuminated
Mar 2
Waning Gibbous
Mar 4
Last Quarter
Mar 11
New
Mar 19
First Quarter
Mar 27
Full

Hourly Weather History & Observations

Time (CST) Temp. Windchill Dew Point Humidity Pressure Visibility Wind Dir Wind Speed Gust Speed Precip Events Conditions
12:29 AM 33.8 °F 27.0 °F 32.0 °F 93% 30.07 in 6.0 mi NNW 8.1 mph - 0.00 in Rain Light Rain
12:56 AM 32.9 °F 26.7 °F 32.0 °F 96% 30.12 in 9.0 mi NW 6.9 mph - 0.00 in   Overcast
1:56 AM 32.0 °F 25.6 °F 31.1 °F 96% 30.10 in 10.0 mi NW 6.9 mph - 0.00 in   Mostly Cloudy
2:38 AM 32.0 °F 25.6 °F 30.2 °F 93% 30.05 in 8.0 mi NNW 6.9 mph - 0.00 in   Scattered Clouds
2:56 AM 32.0 °F 25.6 °F 31.1 °F 96% 30.09 in 8.0 mi NW 6.9 mph - 0.00 in   Scattered Clouds
3:06 AM 32.0 °F 25.6 °F 30.2 °F 93% 30.05 in 10.0 mi NW 6.9 mph - 0.00 in   Partly Cloudy
3:56 AM 32.0 °F 24.8 °F 31.1 °F 96% 30.09 in 9.0 mi NW 8.1 mph - 0.00 in   Partly Cloudy
4:30 AM 32.0 °F 25.6 °F 30.2 °F 93% 30.05 in 5.0 mi NW 6.9 mph - 0.00 in   Mostly Cloudy
4:49 AM 32.0 °F 24.8 °F 30.2 °F 93% 30.05 in 8.0 mi NW 8.1 mph - 0.00 in   Scattered Clouds
4:56 AM 32.0 °F 24.2 °F 30.0 °F 92% 30.09 in 6.0 mi NW 9.2 mph - 0.00 in   Mostly Cloudy
5:04 AM 32.0 °F 24.8 °F 30.2 °F 93% 30.06 in 7.0 mi NW 8.1 mph - 0.00 in   Mostly Cloudy
5:20 AM 32.0 °F 25.6 °F 30.2 °F 93% 30.06 in 6.0 mi NW 6.9 mph - 0.00 in   Overcast
5:30 AM 32.0 °F 26.4 °F 30.2 °F 93% 30.06 in 2.5 mi NW 5.8 mph - 0.00 in   Mostly Cloudy
5:38 AM 32.0 °F 25.6 °F 30.2 °F 93% 30.06 in 1.5 mi NW 6.9 mph - 0.00 in   Overcast
5:43 AM 30.2 °F 22.6 °F 30.2 °F 100% 30.06 in 2.5 mi NW 8.1 mph - 0.00 in   Overcast
5:56 AM 32.0 °F 24.8 °F 30.0 °F 92% 30.11 in 5.0 mi NW 8.1 mph - 0.00 in   Mostly Cloudy
6:08 AM 30.2 °F 22.6 °F 30.2 °F 100% 30.06 in 5.0 mi NW 8.1 mph - 0.00 in   Overcast
6:56 AM 31.1 °F 26.4 °F 30.0 °F 96% 30.12 in 8.0 mi NW 4.6 mph - 0.00 in Snow Light Snow
7:56 AM 32.0 °F 25.6 °F 31.1 °F 96% 30.13 in 10.0 mi WNW 6.9 mph - 0.00 in Snow Light Snow
8:06 AM 32.0 °F 24.2 °F 30.2 °F 93% 30.08 in 10.0 mi WNW 9.2 mph - 0.00 in Snow Light Snow
8:56 AM 32.9 °F 26.7 °F 32.0 °F 96% 30.13 in 10.0 mi NW 6.9 mph - 0.00 in Rain Light Rain
9:10 AM 33.8 °F 26.4 °F 32.0 °F 93% 30.09 in 6.0 mi NNW 9.2 mph - 0.00 in Rain Light Rain
9:22 AM 33.8 °F 26.4 °F 32.0 °F 93% 30.09 in 6.0 mi NW 9.2 mph - 0.00 in Rain Light Rain
9:56 AM 34.9 °F 27.1 °F 32.0 °F 89% 30.14 in 7.0 mi North 10.4 mph - 0.00 in Rain Light Rain
10:17 AM 35.6 °F 28.0 °F 32.0 °F 87% 30.10 in 9.0 mi North 10.4 mph - 0.00 in Rain Light Rain
10:56 AM 34.9 °F 29.0 °F 32.0 °F 89% 30.15 in 10.0 mi North 6.9 mph - 0.00 in Snow Light Snow
11:11 AM 35.6 °F 28.0 °F 32.0 °F 87% 30.11 in 10.0 mi North 10.4 mph - 0.00 in Snow Light Snow
11:56 AM 34.9 °F 26.6 °F 32.0 °F 89% 30.15 in 5.0 mi North 11.5 mph - 0.00 in Snow Light Snow
12:24 PM 35.6 °F 28.6 °F 32.0 °F 87% 30.10 in 3.0 mi North 9.2 mph - 0.00 in Snow Light Snow
12:41 PM 33.8 °F 25.8 °F 30.2 °F 87% 30.09 in 1.8 mi North 10.4 mph - 0.00 in Snow Light Snow
12:44 PM 33.8 °F 25.8 °F 30.2 °F 87% 30.09 in 1.2 mi North 10.4 mph - 0.00 in Snow Light Snow
12:56 PM 32.9 °F 24.7 °F 32.0 °F 96% 30.14 in 3.0 mi North 10.4 mph - 0.01 in Snow Light Snow
1:03 PM 33.8 °F 25.8 °F 32.0 °F 93% 30.09 in 4.0 mi North 10.4 mph - 0.00 in Snow Light Snow
1:56 PM 32.9 °F 22.8 °F 31.1 °F 93% 30.14 in 4.0 mi NNW 15.0 mph - 0.00 in Snow Light Snow
2:56 PM 32.9 °F 23.2 °F 30.0 °F 89% 30.15 in 10.0 mi NNW 13.8 mph - 0.00 in Snow Light Snow
3:56 PM 32.9 °F 24.7 °F 30.0 °F 89% 30.16 in 10.0 mi NNW 10.4 mph - 0.00 in Snow Light Snow
4:56 PM 32.9 °F 23.7 °F 28.0 °F 82% 30.17 in 10.0 mi NNW 12.7 mph - 0.00 in Rain Light Rain
5:06 PM 33.8 °F 24.3 °F 28.4 °F 81% 30.13 in 10.0 mi NNW 13.8 mph - 0.00 in Rain Light Rain
5:48 PM 32.0 °F 22.5 °F 28.4 °F 87% 30.15 in 10.0 mi NW 12.7 mph - 0.00 in Snow Light Snow
5:56 PM 32.0 °F 22.5 °F 28.0 °F 85% 30.19 in 10.0 mi NW 12.7 mph - 0.00 in Snow Light Snow
6:16 PM 32.0 °F 23.6 °F 26.6 °F 80% 30.15 in 10.0 mi NNW 10.4 mph - 0.00 in Snow Light Snow
6:42 PM 32.0 °F 23.0 °F 26.6 °F 80% 30.16 in 10.0 mi NNW 11.5 mph - 0.00 in   Overcast
6:56 PM 32.0 °F 23.6 °F 26.1 °F 79% 30.20 in 10.0 mi NW 10.4 mph - 0.00 in   Overcast
7:56 PM 31.1 °F 21.9 °F 26.1 °F 82% 30.21 in 10.0 mi NNW 11.5 mph - 0.00 in   Overcast
8:34 PM 30.2 °F 21.3 °F 26.6 °F 86% 30.17 in 10.0 mi NNW 10.4 mph - 0.00 in   Overcast
8:56 PM 31.1 °F 23.1 °F 27.1 °F 85% 30.22 in 10.0 mi NNW 9.2 mph - 0.00 in   Overcast
9:56 PM 31.1 °F 21.9 °F 27.1 °F 85% 30.21 in 10.0 mi NW 11.5 mph - 0.00 in   Overcast
10:25 PM 30.2 °F 21.3 °F 26.6 °F 86% 30.16 in 10.0 mi NW 10.4 mph - 0.00 in   Overcast
10:36 PM 30.2 °F 20.8 °F 26.6 °F 86% 30.16 in 10.0 mi NW 11.5 mph - 0.00 in   Overcast
10:56 PM 30.0 °F 20.5 °F 26.1 °F 85% 30.21 in 10.0 mi NNW 11.5 mph - 0.00 in   Overcast
11:32 PM 30.2 °F 21.3 °F 26.6 °F 86% 30.16 in 10.0 mi NW 10.4 mph - 0.00 in   Overcast
11:56 PM 30.0 °F 20.0 °F 26.1 °F 85% 30.21 in 10.0 mi NW 12.7 mph - 0.00 in   Mostly Cloudy